Regional Weather Roundup
Issued by NWS Memphis, TN

Home | Current Version | Previous Version | Text Only | Print | Product List | Glossary On
Versions: 1 2 3 4 5 6 7 8 9 10 11 12 13 14 15 16 17 18 19 20 21 22 23 24 25 26 27 28 29 30 31 32 33 34 35 36 37 38 39 40 41 42 43 44 45 46 47 48 49 50
000
ASUS44 KMEG 270110
RWRMEG
MEMPHIS CWA HOURLY WEATHER ROUNDUP
NATIONAL WEATHER SERVICE MEMPHIS TN
700 PM CST THU FEB 26 2015

...WEST TENNESSEE...

CITY           SKY/WX    TMP DP  RH WIND       PRES   REMARKS
MEMPHIS INTL   CLOUDY    31  21  66 N15G24    30.32R WCI  20
NWS MEMPHIS      N/A     30 N/A N/A MISG        N/A
JACKSON        CLOUDY    28  21  75 N17       30.32R WCI  16
LEXINGTON      CLOUDY    28  23  80 N13       30.26R WCI  18
SAVANNAH       CLOUDY    34  23  64 N12       30.25R WCI  25
DYERSBURG      CLOUDY    27   9  46 N12       30.38R WCI  16
UNION CITY     CLOUDY    25  19  80 N15       30.34R WCI  12
PARIS          CLOUDY    25  19  80 N10       30.30R WCI  15


...EASTERN ARKANSAS...

CITY           SKY/WX    TMP DP  RH WIND       PRES   REMARKS
JONESBORO      CLOUDY    29  17  61 N7G20     30.37R WCI  22
WEST MEMPHIS   CLOUDY    30  22  72 N16       30.34R WCI  19
BATESVILLE     PTCLDY    27  12  54 NW6       30.38R WCI  20
NEWPORT        CLEAR     28  17  63 N15       30.39R WCI  16
WALNUT RIDGE   FAIR      27  12  54 N14       30.39R WCI  15
BLYTHEVILLE    CLOUDY    28  21  75 N16       30.39R WCI  16
SEARCY         CLEAR     29  17  61 N7        30.39R WCI  22
STUTTGART      CLEAR     32  21  64 N16       30.34R WCI  21
PINE BLUFF     CLEAR     32  23  69 N12       30.34R WCI  23
MONTICELLO     CLEAR     34  26  72 N7        30.31R WCI  28


...NORTH MISSISSIPPI...

CITY           SKY/WX    TMP DP  RH WIND       PRES   REMARKS
TUPELO         CLOUDY    37  28  70 N12       30.23R WCI  29
OXFORD         CLOUDY    32  25  74 N14G21    30.30R WCI  22
OLIVE BRANCH   CLOUDY    30  27  86 N16G23    30.32R WCI  19
TUNICA         CLOUDY    32  27  80 N14G20    30.34R WCI  22
CLARKSDALE     CLOUDY    32  25  74 N20       30.34R WCI  20
CORINTH        MIX PCPN  34  27  75 NW17G23   30.25R WCI  23
GREENWOOD        N/A    N/A N/A N/A MISG      30.30R
STARKVILLE     MOCLDY    32  32 100 CALM      30.24R
GOLDEN TRIANGL MOCLDY    34  30  86 W7        30.21R WCI  28


...SOUTHEAST MISSOURI...

CITY           SKY/WX    TMP DP  RH WIND       PRES   REMARKS
WEST PLAINS    CLEAR     19   8  62 N6        30.35R WCI  11
POPLAR BLUFF   CLOUDY    26  12  55 N14       30.38R WCI  14


...NORTHWEST ALABAMA...

CITY           SKY/WX    TMP DP  RH WIND       PRES   REMARKS
MUSCLE SHOALS  CLEAR     39  25  57 NW9       30.19R WCI  33


...MIDDLE TENNESSEE...

CITY           SKY/WX    TMP DP  RH WIND       PRES   REMARKS
NASHVILLE      CLOUDY    32  21  64 NW14G21   30.24R WCI  22
CLARKSVILLE    CLOUDY    27  22  81 NW14      30.29R WCI  16
COLUMBIA         N/A     34  25  69 N7        30.20R WCI  28


...WESTERN KENTUCKY...

CITY           SKY/WX    TMP DP  RH WIND       PRES   REMARKS
PADUCAH        CLOUDY    25  17  72 N16G23    30.35R WCI  12
FORT CAMPBELL  FLURRIES  27  19  74 N14       30.29R WCI  15


...CENTRAL ARKANSAS...

CITY           SKY/WX    TMP DP  RH WIND       PRES   REMARKS
LITTLE ROCK    PTCLDY    32  16  51 N13G21    30.36R WCI  22


SKY/WX REPORTED AS FAIR MEANS FEW OR NO CLOUDS BELOW
12 THOUSAND FEET.




USA.gov is the U.S. government's official web portal to all federal, state and local government web resources and services.